SB KEPS @ AMSAT $ORB10350.O Orbital Elements 10350.OSCAR
HR AMSAT ORBITAL ELEMENTS FOR OSCAR SATELLITES FROM WA5QGD FORT WORTH,TX December 16, 2010 Send Subscribe/unsubscribe to KEPS at http://www.amsat.org/mailman/listinfo/keps BID: ORB10350.O TO ALL RADIO AMATEURS BT
Satellite: AO-07 Catalog number: 07530 Epoch time: 10349.60211824 Element set: 0954 Inclination: 101.3963 deg RA of node: 358.3873 deg Eccentricity: 0.0011791 Arg of perigee: 280.0324 deg Mean anomaly: 079.9410 deg Mean motion: 12.53580500 rev/day Decay rate: -2.7e-07 rev/day^2 Epoch rev: 65118 Checksum: 280
Satellite: FO-29 Catalog number: 24278 Epoch time: 10349.95200462 Element set: 0466 Inclination: 098.5185 deg RA of node: 154.0236 deg Eccentricity: 0.0351022 Arg of perigee: 012.4662 deg Mean anomaly: 348.4889 deg Mean motion: 13.52955771 rev/day Decay rate: -1.7e-07 rev/day^2 Epoch rev: 70768 Checksum: 323
Satellite: SO-33 Catalog number: 25509 Epoch time: 10350.75081603 Element set: 860 Inclination: 031.4293 deg RA of node: 196.1007 deg Eccentricity: 0.0352990 Arg of perigee: 086.2146 deg Mean anomaly: 277.8757 deg Mean motion: 14.28347409 rev/day Decay rate: 1.20e-06 rev/day^2 Epoch rev: 63417 Checksum: 300
Satellite: RS-22 Catalog number: 27939 Epoch time: 10350.67845541 Element set: 816 Inclination: 097.8664 deg RA of node: 208.1529 deg Eccentricity: 0.0013091 Arg of perigee: 198.7739 deg Mean anomaly: 161.2980 deg Mean motion: 14.63489576 rev/day Decay rate: 2.08e-06 rev/day^2 Epoch rev: 38564 Checksum: 349
Satellite: VO-52 Catalog number: 28650 Epoch time: 10349.71194890 Element set: 0671 Inclination: 097.6697 deg RA of node: 035.8252 deg Eccentricity: 0.0027910 Arg of perigee: 044.3553 deg Mean anomaly: 315.9891 deg Mean motion: 14.81874101 rev/day Decay rate: 6.67e-06 rev/day^2 Epoch rev: 30357 Checksum: 328
Satellite: SO-67 Catalog number: 35870 Epoch time: 10350.80939043 Element set: 384 Inclination: 097.3087 deg RA of node: 034.8780 deg Eccentricity: 0.0003275 Arg of perigee: 148.8342 deg Mean anomaly: 340.7440 deg Mean motion: 15.21239782 rev/day Decay rate: 8.89e-06 rev/day^2 Epoch rev: 6921 Checksum: 322
Satellite: HO-68 Catalog number: 36122 Epoch time: 10350.81956510 Element set: 939 Inclination: 100.4465 deg RA of node: 049.1960 deg Eccentricity: 0.0007141 Arg of perigee: 281.1629 deg Mean anomaly: 078.8687 deg Mean motion: 13.16283227 rev/day Decay rate: -4.5e-07 rev/day^2 Epoch rev: 4824 Checksum: 302
/EX SB KEPS @ AMSAT $ORB10350.D Orbital Elements 10350.MICROS
HR AMSAT ORBITAL ELEMENTS FOR THE MICROSATS FROM WA5QGD FORT WORTH,TX December 16, 2010 Send Subscribe/unsubscribe to KEPS at http://www.amsat.org/mailman/listinfo/keps BID: ORB10350.D TO ALL RADIO AMATEURS BT
Satellite: UO-11 Catalog number: 14781 Epoch time: 10349.70666410 Element set: 0421 Inclination: 098.0331 deg RA of node: 041.7474 deg Eccentricity: 0.0009364 Arg of perigee: 019.2125 deg Mean anomaly: 340.9487 deg Mean motion: 14.79868438 rev/day Decay rate: -5.6e-07 rev/day^2 Epoch rev: 43865 Checksum: 312
Satellite: AO-16 Catalog number: 20439 Epoch time: 10350.85195002 Element set: 69 Inclination: 098.3602 deg RA of node: 301.8120 deg Eccentricity: 0.0011059 Arg of perigee: 349.5056 deg Mean anomaly: 010.5890 deg Mean motion: 14.31887717 rev/day Decay rate: 3.3e-07 rev/day^2 Epoch rev: 9152 Checksum: 274
Satellite: LO-19 Catalog number: 20442 Epoch time: 10349.77248456 Element set: 0980 Inclination: 098.3220 deg RA of node: 305.8448 deg Eccentricity: 0.0011711 Arg of perigee: 346.5721 deg Mean anomaly: 013.5154 deg Mean motion: 14.32116038 rev/day Decay rate: 2.0e-08 rev/day^2 Epoch rev: 09154 Checksum: 275
Satellite: AO-27 Catalog number: 22825 Epoch time: 10350.86341165 Element set: 701 Inclination: 098.5093 deg RA of node: 294.2926 deg Eccentricity: 0.0009296 Arg of perigee: 090.8213 deg Mean anomaly: 269.4036 deg Mean motion: 14.29319869 rev/day Decay rate: 3.6e-07 rev/day^2 Epoch rev: 89814 Checksum: 328
Satellite: IO-26 Catalog number: 22826 Epoch time: 10349.77617437 Element set: 0439 Inclination: 098.5044 deg RA of node: 293.7670 deg Eccentricity: 0.0009885 Arg of perigee: 090.0762 deg Mean anomaly: 270.1546 deg Mean motion: 14.29578352 rev/day Decay rate: 3.8e-07 rev/day^2 Epoch rev: 89810 Checksum: 340
Satellite: GO-32 Catalog number: 25397 Epoch time: 10350.82388797 Element set: 358 Inclination: 098.3186 deg RA of node: 348.2505 deg Eccentricity: 0.0002313 Arg of perigee: 090.7585 deg Mean anomaly: 269.3856 deg Mean motion: 14.23192267 rev/day Decay rate: 9.0e-07 rev/day^2 Epoch rev: 64602 Checksum: 327
Satellite: NO-44 Catalog number: 26931 Epoch time: 10350.79946006 Element set: 632 Inclination: 067.0511 deg RA of node: 093.4738 deg Eccentricity: 0.0006421 Arg of perigee: 278.3305 deg Mean anomaly: 081.7086 deg Mean motion: 14.29626509 rev/day Decay rate: 2.10e-06 rev/day^2 Epoch rev: 48085 Checksum: 297
Satellite: SO-50 Catalog number: 27607 Epoch time: 10349.72764634 Element set: 0344 Inclination: 064.5565 deg RA of node: 165.0725 deg Eccentricity: 0.0051103 Arg of perigee: 006.9255 deg Mean anomaly: 353.2479 deg Mean motion: 14.71618093 rev/day Decay rate: -9.1e-07 rev/day^2 Epoch rev: 42909 Checksum: 307
Satellite: CO-55 Catalog number: 27844 Epoch time: 10349.58290240 Element set: 0000 Inclination: 098.7082 deg RA of node: 355.9515 deg Eccentricity: 0.0010306 Arg of perigee: 012.1344 deg Mean anomaly: 348.0075 deg Mean motion: 14.20753900 rev/day Decay rate: 6.1e-07 rev/day^2 Epoch rev: 38684 Checksum: 279
Satellite: CO-57 Catalog number: 27848 Epoch time: 10349.56878386 Element set: 0949 Inclination: 098.7136 deg RA of node: 355.0707 deg Eccentricity: 0.0010192 Arg of perigee: 016.8152 deg Mean anomaly: 343.3372 deg Mean motion: 14.20541278 rev/day Decay rate: 4.7e-07 rev/day^2 Epoch rev: 38679 Checksum: 342
Satellite: AO-51 Catalog number: 28375 Epoch time: 10349.48600622 Element set: 0849 Inclination: 098.0770 deg RA of node: 332.8159 deg Eccentricity: 0.0083101 Arg of perigee: 267.8020 deg Mean anomaly: 091.3654 deg Mean motion: 14.40715196 rev/day Decay rate: 4.1e-07 rev/day^2 Epoch rev: 33961 Checksum: 301
Satellite: CP3 Catalog number: 31129 Epoch time: 10349.62146965 Element set: 748 Inclination: 097.9200 deg RA of node: 019.2875 deg Eccentricity: 0.0102630 Arg of perigee: 031.4557 deg Mean anomaly: 329.2701 deg Mean motion: 14.52349653 rev/day Decay rate: 1.37e-06 rev/day^2 Epoch rev: 19419 Checksum: 300
Satellite: CO-65 Catalog number: 32785 Epoch time: 10350.63158560 Element set: 863 Inclination: 097.8755 deg RA of node: 052.8173 deg Eccentricity: 0.0015815 Arg of perigee: 054.0295 deg Mean anomaly: 306.2368 deg Mean motion: 14.81789712 rev/day Decay rate: 6.19e-06 rev/day^2 Epoch rev: 14250 Checksum: 322
Satellite: KKS-1 Catalog number: 33493 Epoch time: 10350.79545977 Element set: 133 Inclination: 098.1041 deg RA of node: 112.0937 deg Eccentricity: 0.0018719 Arg of perigee: 270.7627 deg Mean anomaly: 089.1454 deg Mean motion: 14.81242928 rev/day Decay rate: 6.95e-06 rev/day^2 Epoch rev: 10251 Checksum: 306
Satellite: SOHLA-1 Catalog number: 33496 Epoch time: 10349.75812253 Element set: 281 Inclination: 098.0692 deg RA of node: 096.6170 deg Eccentricity: 0.0006463 Arg of perigee: 356.6710 deg Mean anomaly: 003.4461 deg Mean motion: 14.69541390 rev/day Decay rate: 9.5e-07 rev/day^2 Epoch rev: 10154 Checksum: 293
Satellite: TISAT-1 Catalog number: 36799 Epoch time: 10350.77782626 Element set: 407 Inclination: 098.1267 deg RA of node: 052.0530 deg Eccentricity: 0.0016120 Arg of perigee: 142.6660 deg Mean anomaly: 217.5672 deg Mean motion: 14.80263099 rev/day Decay rate: 4.48e-06 rev/day^2 Epoch rev: 2332 Checksum: 291
Satellite: STUDSAT Catalog number: 36801 Epoch time: 10349.81655459 Element set: 0106 Inclination: 098.1288 deg RA of node: 050.9568 deg Eccentricity: 0.0014608 Arg of perigee: 134.7577 deg Mean anomaly: 225.4824 deg Mean motion: 14.79877178 rev/day Decay rate: 1.173e-05 rev/day^2 Epoch rev: 02317 Checksum: 326
Satellite: RAX Catalog number: 37223 Epoch time: 10348.55369080 Element set: 0028 Inclination: 071.9727 deg RA of node: 086.2100 deg Eccentricity: 0.0022762 Arg of perigee: 269.6151 deg Mean anomaly: 090.2373 deg Mean motion: 14.77194760 rev/day Decay rate: 3.30e-06 rev/day^2 Epoch rev: 00362 Checksum: 274
Satellite: OOREOS Catalog number: 37224 Epoch time: 10341.65020651 Element set: 0024 Inclination: 071.9721 deg RA of node: 101.4631 deg Eccentricity: 0.0021269 Arg of perigee: 279.4939 deg Mean anomaly: 080.3788 deg Mean motion: 14.76858178 rev/day Decay rate: 2.35e-06 rev/day^2 Epoch rev: 00259 Checksum: 288
Satellite: FASTSAT Catalog number: 37225 Epoch time: 10339.55430316 Element set: 0021 Inclination: 071.9720 deg RA of node: 106.1057 deg Eccentricity: 0.0019965 Arg of perigee: 280.4841 deg Mean anomaly: 079.4053 deg Mean motion: 14.76483442 rev/day Decay rate: 4.1e-07 rev/day^2 Epoch rev: 00228 Checksum: 266
Satellite: FAST1-2 Catalog number: 37227 Epoch time: 10345.24707404 Element set: 0025 Inclination: 071.9728 deg RA of node: 093.5629 deg Eccentricity: 0.0019225 Arg of perigee: 270.0891 deg Mean anomaly: 089.8078 deg Mean motion: 14.76374882 rev/day Decay rate: 8.9e-07 rev/day^2 Epoch rev: 00312 Checksum: 310
/EX SB KEPS @ AMSAT $ORB10350.W Orbital Elements 10350.WEATHER
HR AMSAT ORBITAL ELEMENTS FOR WEATHER SATELLITES FROM WA5QGD FORT WORTH,TX December 16, 2010 Send Subscribe/unsubscribe to KEPS at http://www.amsat.org/mailman/listinfo/keps BID: ORB10350.W TO ALL RADIO AMATEURS BT
Satellite: NOAA-10 Catalog number: 16969 Epoch time: 10350.12207525 Element set: 318 Inclination: 098.6401 deg RA of node: 017.2198 deg Eccentricity: 0.0012889 Arg of perigee: 043.2366 deg Mean anomaly: 316.9833 deg Mean motion: 14.27437568 rev/day Decay rate: 8.0e-08 rev/day^2 Epoch rev: 26153 Checksum: 302
